Location: Karcze
(52.0945°N, 22.4786°E)
Time: 20:31:31
(UTC+00:00)

Transit 2A Rocket - Pass Details

Date: 05 August 2021
Orbit: 586 x 917 km, 66.7° (Epoch: 27 September)

Event Time Altitude Azimuth Distance (km) Brightness Sun altitude
Rises 11:02:13 0° 183° (S) 2,858 8.5 54.4°
Reaches altitude 10° 11:04:38 10° 171° (S) 1,992 7.9 54.3°
Maximum altitude 11:08:25 27° 113° (ESE) 1,243 6.6 54.2°
Drops below altitude 10° 11:12:30 10° 56° (NE) 2,153 7.2 54.0°
Sets 11:15:12 0° 45° (NE) 3,136 7.9 53.9°
